Regional Weather Roundup
Issued by NWS

Home | Current Version | Previous Version | Text Only | Print | Product List | Glossary Off
Versions: 1 2 3 4 5 6 7 8 9 10 11 12 13 14 15 16 17 18 19 20 21 22 23 24 25 26 27 28 29 30 31 32 33 34 35 36 37 38 39 40 41 42 43 44 45 46 47 48 49 50

000
ASUS43 KLOT 272110
RWRIL

ILLINOIS REGIONAL WEATHER ROUNDUP
NATIONAL WEATHER SERVICE CHICAGO/ROMEOVILLE IL
300 PM CST THU NOV 27 2014

NOTE: "FAIR" INDICATES FEW OR NO CLOUDS BELOW 12,000 FEET WITH NO
SIGNIFICANT WEATHER AND/OR OBSTRUCTIONS TO VISIBILITY.

* THESE STATIONS ARE NOT UNDER NWS QUALITY CONTROL. THEY ALSO MAY NOT
  REPORT WEATHER SUCH AS PRECIPITATION OR FOG.

ILZ001-002-007-009-015-016-024-272200-
NORTHWEST ILLINOIS

CITY           SKY/WX    TMP DP  RH WIND       PRES   REMARKS
MOLINE         SUNNY     20   4  50 NW15      30.44R WCI   6
STERLING*      CLOUDY    25  14  63 W13       30.40R WCI  13
SAVANNA*       SUNNY     22  10  59 W7        30.41R WCI  14
$$

ILZ003-004-008-010-011-017-018-272200-
NORTH CENTRAL ILLINOIS

CITY           SKY/WX    TMP DP  RH WIND       PRES   REMARKS
ROCKFORD       FLURRIES  22  11  62 NW12      30.40R WCI  10
FREEPORT*      CLOUDY    21  10  64 W13       30.40R WCI   8
ROCHELLE*      CLOUDY    22  13  65 W12       30.38S WCI  11
DE KALB*       LGT SNOW  21  17  85 NW13      30.36R WCI   8
PERU*          CLOUDY    26  17  70 NW16      30.40R WCI  13
$$

ILZ005-006-012>014-019>023-272200-
NORTHEAST ILLINOIS

CITY           SKY/WX    TMP DP  RH WIND       PRES   REMARKS
CHICAGO-OHARE  PTSUNNY   23  14  68 NW13      30.35R WCI  11
CHICAGO-MIDWAY PTSUNNY   26  15  63 NW13      30.36R WCI  15
AURORA         CLOUDY    25  16  68 W14       30.37R WCI  13
LANSING*       CLOUDY    26  15  65 NW10      30.36R WCI  16
JOLIET*        CLOUDY    25  17  69 CALM      30.38R
WAUKEGAN       CLOUDY    21  12  68 W12       30.35R WCI   9
DUPAGE AIRPORT FLURRIES  24  15  68 NW9       30.35R WCI  14
KANKAKEE*      FLURRIES N/A N/A N/A NW8       30.37R
WHEELING       FLURRIES  22  13  68 NW10      30.38R WCI  11
MORRIS*        FLURRIES  26  22  85 NW14G35   30.37R WCI  14
ROMEOVILLE*    CLOUDY    25  16  68 NW8       30.37R WCI  16
NORTHERLY ISL    N/A     25  15  66 W15         N/A  WCI  13
$$

LMZ740>746-272200-
SOUTHERN LAKE MICHIGAN

STATION/POSITION SKY/WX   TEMP    WIND        PRES    VSBY  WAVE
                          AIR SEA DIR/SP/G                  HT/PER
                          (F)     (DEG/KT/KT) (MB)    (MI)  (FT/S)
SOUTHERN BUOY              26 42  330/ 17/ 21 1027.3R         6/ 7
WAUKEGAN HARBOR            22     310/  8/ 14   N/A
HARRISON CRIB              23     300/ 17/ 20   N/A
BURNHAM HARBOR             24     310/  8/ 14   N/A
CALUMET HARBOR             25     310/  7/ 11 1026.7R
MICHIGAN CITY              27     270/ 20/ 23   N/A
$$

ILZ025>027-034>036-040-047-049-050-058-095>099-272200-
WEST-CENTRAL ILLINOIS

CITY           SKY/WX    TMP DP  RH WIND       PRES   REMARKS
QUINCY         PTSUNNY   24  15  68 W12       30.46S WCI  13
GALESBURG*     SUNNY     17  11  77 W10       30.44S WCI   5
MACOMB*        SUNNY     19  10  67 NW12      30.48S WCI   7
JACKSONVILLE*  MOSUNNY   26  16  66 W9        30.46R WCI  16
PITTSFIELD*    PTSUNNY   27  19  71 NW10      30.47R WCI  17
$$

ILZ028>032-037-038-041>044-048-051>054-059>061-272200-
CENTRAL ILLINOIS

CITY           SKY/WX    TMP DP  RH WIND       PRES   REMARKS
PONTIAC        CLOUDY    27  19  71 W16       30.40R WCI  14
BLOOMINGTON    CLOUDY    24  18  78 NW14      30.40R WCI  12
DECATUR        CLOUDY    24  18  77 W12G22    30.43R WCI  13
PEORIA         MOSUNNY   24  13  62 NW8       30.43R WCI  15
LACON*         PTSUNNY   24  15  68 W12G17    30.42R WCI  13
LINCOLN*       CLOUDY    26  17  71 W10G16    30.45R WCI  15
SPRINGFIELD    CLOUDY    25  15  66 W14       30.45S WCI  13
TAYLORVILLE    SUNNY     25  18  74 NW13      30.45R WCI  13
$$

ILZ033-039-045-046-055>057-062-063-272200-
EAST-CENTRAL ILLINOIS

CITY           SKY/WX    TMP DP  RH WIND       PRES   REMARKS
CHAMPAIGN      LGT SNOW  28  22  78 W18       30.39R WCI  15
DANVILLE*      CLOUDY    27  20  75 W10       30.35R WCI  18
RANTOUL*       LGT SNOW  29  23  79 NW12G18   30.38R WCI  19
MATTOON        CLOUDY    27  21  78 W17       30.40R WCI  14
PARIS*         LGT SNOW  29  25  84 W9        30.40R WCI  20
$$

ILZ079-100>102-272200-
SOUTHWEST ILLINOIS

CITY           SKY/WX    TMP DP  RH WIND       PRES   REMARKS
ALTON          MOSUNNY   30  19  64 W12       30.45F WCI  21
BELLEVILLE     MOSUNNY   33  23  67 NW10      30.45S WCI  24
CAHOKIA*       SUNNY     34  22  61 NW12      30.46S WCI  25
SPARTA*        PTSUNNY   32  23  69 NW8       30.45F WCI  25
$$

ILZ064>066-069>071-074>076-080>082-084>086-088>090-092>094-272200-
SOUTH-CENTRAL ILLINOIS

CITY           SKY/WX    TMP DP  RH WIND       PRES   REMARKS
CARBONDALE     CLOUDY    33  25  72 NW7       30.46S WCI  27
CAIRO*         PTSUNNY   38  27  62 W7        30.47S WCI  33
EFFINGHAM*     CLOUDY    28  18  64 W13       30.43R WCI  18
MARION         PTSUNNY   34  25  69 NW12      30.47S WCI  25
MT. VERNON     CLOUDY    32  21  64 CALM      30.45F
CENTRALIA*     MOSUNNY   30  22  73 NW8       30.44S WCI  23
SALEM*           N/A     31  23  71 NW9       30.44S WCI  23
METROPOLIS*    CLOUDY    35  26  71 W7          N/A  WCI  29
$$

ILZ067-068-072-073-078-083-087-091-272200-
SOUTHEAST ILLINOIS

CITY           SKY/WX    TMP DP  RH WIND       PRES   REMARKS
LAWRENCEVILLE  CLOUDY    30  22  72 W15       30.43R WCI  19
FLORA*         MOSUNNY   29  23  79 NW9       30.45R WCI  20
FAIRFIELD*     CLOUDY    31  23  72 W7        30.44S WCI  24
HARRISBURG*    PTSUNNY   32  27  81 NW7       30.47S WCI  26
ROBINSON*      LGT SNOW  29  24  82 NW14      30.43R WCI  19
CARMI*         CLOUDY    32  26  79 NW8       30.45S WCI  25
$$

ABBREVIATIONS USED IN REMARKS
   TC - TEMPERATURE IN CELSIUS
  WCI - WIND CHILL INDEX
   HX - HEAT INDEX
  VSB - VISIBILITY
$$




USA.gov is the U.S. government's official web portal to all federal, state and local government web resources and services.